Regional Weather Roundup
Issued by NWS Albany, NY

Home | Current Version | Previous Version | Graphics & Text | Print | Product List | Glossary Off
Versions: 1 2 3 4 5 6 7 8 9 10 11 12 13 14 15 16 17 18 19 20 21 22 23 24 25 26 27 28 29 30 31 32 33 34 35 36 37 38 39 40 41 42 43 44 45 46 47 48 49 50

000
ASUS41 KALY 211810
RWRALY

NEW YORK STATE HOURLY WEATHER ROUNDUP
NATIONAL WEATHER SERVICE ALBANY NY
200 PM EDT SUN SEP 21 2014

NOTE: "FAIR" INDICATES FEW OR NO CLOUDS BELOW 12,000 FEET WITH NO
SIGNIFICANT WEATHER AND/OR NO OBSTRUCTIONS TO VISIBILITY.

NYZ032-033-038>043-046>054-057>066-NYZ062>081-211900-
EAST


CITY           SKY/WX    TMP DP  RH WIND       PRES   REMARKS
ALBANY         PTSUNNY   79  57  46 S13G24    29.71F
GLENS FALLS    SUNNY     79  61  53 S13       29.70F
POUGHKEEPSIE   CLOUDY    74  66  76 SE6       29.74F
MONTGOMERY     PTSUNNY   79  64  60 SE5       29.73F
WHITE PLAINS   CLOUDY    72  68  87 CALM      29.75F
ISLIP          CLOUDY    74  69  85 S6        29.73F
NEW YORK CITY  CLOUDY    73  66  78 VRB3      29.74F
CENTRAL PARK   CLOUDY    72  67  84 VRB5      29.77F HAZE
$$

NYZ005>009-017-018-044>046-055-056-211900-
CENTRAL


CITY           SKY/WX    TMP DP  RH WIND       PRES   REMARKS
FULTON         CLOUDY    76  66  71 S12G17    29.58F
SYRACUSE       PTSUNNY   79  63  57 S18G28    29.60F
ROME           CLOUDY    70  64  81 E7        29.65F
ELMIRA         CLOUDY    77  64  64 SW13G26   29.63F
BINGHAMTON     MOSUNNY   75  60  59 S12G21    29.70F
MONTICELLO     FAIR      75  57  53 MISG      29.78F
$$

NYZ026>034-041>043-211900-
NORTH


CITY           SKY/WX    TMP DP  RH WIND       PRES   REMARKS
WATERTOWN      MOSUNNY   75  63  66 S12G23    29.56F
FORT DRUM      NOT AVBL
MASSENA        LGT RAIN  68  66  93 S9        29.56F FOG
SARANAC LAKE   LGT RAIN  71  58  63 S17       29.66F
PLATTSBURGH    CLOUDY    73  60  63 SE14      29.62F
$$

NYZ001>004-010>016-019>021-211900-
WEST


CITY           SKY/WX    TMP DP  RH WIND       PRES   REMARKS
NIAGARA FALLS  MOSUNNY   76  59  55 SW23G30   29.56F
BUFFALO        MOSUNNY   72  62  71 SW25G35   29.59S
DUNKIRK        PTSUNNY   70  63  78 SW18G32   29.63S
JAMESTOWN      PTSUNNY   64  61  88 SW9       29.67F
WELLSVILLE     MOSUNNY   72  61  68 SW15G23   29.68F
ROCHESTER      PTSUNNY   75  62  64 W17G30    29.58F
PENN YAN       PTSUNNY   76  64  66 S10G21    29.62F
$$

             KEY
       WCI = WIND CHILL INDEX
       VSB = VISIBILITY
       HX  = HEAT INDEX
$$



USA.gov is the U.S. government's official web portal to all federal, state and local government web resources and services.